EW5961 Weather Reports


time (UTC)temp
C
wind
direction
speed
KPH
gust
KPH
rain 1hr
cm
rain 24hr
cm
rain mn
cm
humidity
%
barometer
mb
20260505153046 32 127 12.9 24.1 0.00 0.00 0.00 62 1012.2
20260505151543 31 123 19.3 29.0 0.00 0.00 0.00 63 1012.3
20260505124510 26 110 11.3 17.7 0.00 0.00 0.00 87 1011.4
20260505123103 25 136 11.3 24.1 0.00 0.00 0.00 87 1011.2
20260505121558 25 121 9.7 19.3 0.00 0.00 0.00 88 1011.2
20260505120057 25 130 8.0 17.7 0.00 0.00 0.00 87 1011.1
20260505114550 25 119 9.7 20.9 0.00 0.00 0.00 87 1010.9
20260505113045 25 136 11.3 17.7 0.00 0.00 0.00 87 1010.9
20260505111543 25 153 12.9 17.7 0.00 0.00 0.00 87 1010.8
20260505101544 25 142 16.1 22.5 0.00 0.00 0.00 86 1010.2
20260505100036 25 109 11.3 20.9 0.00 0.00 0.00 85 1010.4
20260505094534 26 134 14.5 22.5 0.00 0.00 0.00 85 1010.3
20260505093033 26 134 12.9 20.9 0.00 0.00 0.00 84 1010.4
20260505091533 26 101 8.0 19.3 0.00 0.00 0.00 84 1010.6
20260505090039 26 103 12.9 17.7 0.00 0.00 0.00 83 1010.6
20260505084526 26 136 6.4 16.1 0.00 0.00 0.00 83 1010.7
20260505083122 26 22 9.7 19.3 0.00 0.00 0.00 83 1010.7
20260505081522 26 138 8.0 20.9 0.00 0.00 0.00 83 1010.9
20260505080037 26 60 8.0 20.9 0.00 0.00 0.00 82 1010.7
20260505074518 26 76 9.7 17.7 0.00 0.00 0.00 82 1010.7
20260505073026 26 12 11.3 27.4 0.00 0.00 0.00 81 1010.9
20260505071512 26 101 8.0 17.7 0.00 0.00 0.00 80 1011.0
20260505070010 26 121 9.7 22.5 0.00 0.00 0.00 80 1011.0
20260505064508 26 113 14.5 22.5 0.00 0.00 0.00 80 1011.3
20260505063005 26 84 9.7 20.9 0.00 0.00 0.00 80 1011.5
20260505061502 26 117 4.8 16.1 0.00 0.00 0.00 81 1011.6
20260505054559 26 132 3.2 16.1 0.00 0.00 0.00 81 1011.8
20260505053057 26 119 14.5 19.3 0.00 0.00 0.00 81 1012.1
20260505051557 26 119 11.3 16.1 0.00 0.00 0.00 80 1012.1
20260505041555 28 99 4.8 17.7 0.00 0.00 0.00 79 1012.5
20260505034554 28 163 9.7 19.3 0.00 0.00 0.00 79 1012.7
20260505033056 28 92 9.7 19.3 0.00 0.00 0.00 79 1012.6
20260505031559 28 120 4.8 20.9 0.00 0.00 0.00 79 1012.6
20260505030058 28 140 9.7 16.1 0.00 0.00 0.00 79 1012.3
20260505024554 28 111 9.7 22.5 0.00 0.00 0.00 79 1012.0
20260505023052 28 130 6.4 20.9 0.00 0.00 0.00 78 1011.8
20260505020052 28 71 19.3 30.6 0.00 0.00 0.00 77 1011.6
20260505014603 28 65 22.5 29.0 0.00 0.00 0.00 76 1011.3
20260505013050 28 19 20.9 32.2 0.00 0.00 0.00 76 1010.8
20260505011552 28 48 25.7 40.2 0.00 0.00 0.00 75 1010.5
20260505010049 29 40 20.9 29.0 0.00 0.00 0.00 74 1010.1
20260505004554 29 58 27.4 35.4 0.00 0.00 0.00 74 1009.8
20260505003047 29 12 20.9 35.4 0.00 0.00 0.00 73 1009.7
20260505001547 30 24 33.8 41.8 0.00 0.00 0.00 72 1009.7
20260505000052 30 12 20.9 32.2 0.00 0.00 0.00 71 1009.8
20260504234544 31 27 22.5 32.2 0.00 0.00 0.00 70 1009.7
20260504233044 31 5 16.1 29.0 0.00 0.00 0.00 69 1009.4
20260504231543 31 16 19.3 35.4 0.00 0.00 0.00 67 1009.4
20260504230046 32 338 20.9 33.8 0.00 0.00 0.00 67 1009.6
20260504224547 32 19 24.1 35.4 0.00 0.00 0.00 65 1009.3
20260504223042 33 355 22.5 32.2 0.00 0.00 0.00 64 1009.4
20260504221542 34 39 27.4 35.4 0.00 0.00 0.00 60 1009.4
20260504220042 35 34 16.1 29.0 0.00 0.00 0.00 58 1009.3
20260504214551 35 43 22.5 30.6 0.00 0.00 0.00 58 1009.2
20260504213040 35 43 14.5 32.2 0.00 0.00 0.00 59 1009.4
20260504211538 35 28 19.3 37.0 0.00 0.00 0.00 58 1009.3
20260504210053 35 53 16.1 33.8 0.00 0.00 0.00 59 1009.4
20260504204552 35 5 20.9 29.0 0.00 0.00 0.00 58 1009.6
20260504203036 35 102 27.4 33.8 0.00 0.00 0.00 58 1009.7
20260504201532 34 355 14.5 30.6 0.00 0.00 0.00 60 1010.0
20260504200031 35 43 16.1 25.7 0.00 0.00 0.00 59 1010.2
20260504194530 35 29 20.9 37.0 0.00 0.00 0.00 61 1010.7
20260504193029 35 42 19.3 30.6 0.00 0.00 0.00 59 1010.4
20260504191525 35 55 20.9 30.6 0.00 0.00 0.00 59 1010.9
20260504184519 34 36 19.3 29.0 0.00 0.00 0.00 62 1011.3
20260504183018 35 355 4.8 19.3 0.00 0.00 0.00 61 1011.3
20260504181515 33 86 9.7 27.4 0.00 0.00 0.00 60 1011.6
20260504180013 34 18 4.8 16.1 0.00 0.00 0.00 60 1011.9
20260504174511 33 145 3.2 14.5 0.00 0.00 0.00 61 1012.2
20260504173009 33 346 6.4 12.9 0.00 0.00 0.00 61 1012.6
20260504171505 33 93 4.8 17.7 0.00 0.00 0.00 62 1012.7